Torna al catalogo

STARLINK-38075

AttivoComunicazioniSSO
NORAD 100227·PAYLOAD·🇺🇸 United States

Lanciato Aug 4, 2026 da Vandenberg Space Force Base

Loading…

Prossimi Passaggi (prossime 24 ore)

TLE

AggiornatoSource: Space-Track

Epoca: Sep 14, 2026, 14:41 UTC

1 A0227U 26177Q   26257.61182275  .00028196  00000-0  51790-3 0  9999
2 A0227  97.2831 308.4256 0001534  91.2590 268.8837 15.49207548  7521

Traccia STARLINK-38075 in tempo reale con AllMySat

Download on the App Store